Timeline UpdatesTrip UpdatesNews PostsPvt PostsTravel TipsAdmin PostsConv PostsFollowed PostsChat RequestsBlog PostsPNR Posts

Disclaimer
Search
 
 
Wed Sep 3, 2014 00:21:04 ISTHomeTrainsΣChainsAtlasPNRForumGalleryNewsFAQTripsMembersLoginFeedback
No Recent News for this Train
Other Trains in the News **new
Latest...
⇐ Return Journey: Train# 55902

55901/Lumding Tinsukia Passenger (UnReserved)

OLD Time-Table. Click here to UPDATE TT
Aug 23 2013 (12:33PM)
Change Departure Station:
Change Arrival Station:
Post a Train Travel TipPost a Train Travel Tip **new
Post a Comment/Question/Picture/VideoPost a Comment/Question/Picture/Video
Pantry/Catering
✕ NO Pantry Car
✕ NO Catering
RSA - Rake Sharing
Rake/Coach Composition
Loco
News    PNR    Forum    Time-Table    Availability    Fare Chart    Map    Arr/Dep History    Trips    Gallery    ΣChains    X/O    Timeline    
Travel Time: 9h 15m    31 halts    Distance: 214 km    Avg Speed: 23 km/hr
Type: Passenger
Zone: NFR/Northeast Frontier
Departs @ 10:45
Platform# 1
SMTWTFS
Bhilgaon/BHGN 
Arrives @ 20:00
Platform# 4
SMTWTFS
Tinsukia Junction/TSK 

31 halts. 34 intermediate Stations between Bhilgaon and Tinsukia Junction

Show ALL intermediate Stations  

#CodeStation NameX/OArrivesAvgDepartsAvgHaltPFDay#KmSpeedElevZoneAddress
1LMGLumding Junction (5)  -06:30-41-123.140142mNFRLumding, Assam
2BRLFBar LangferX  06:40-06:42-2m--1-116.430154mNFRDist: Karbi Anglong, Assam
3LCTLangcholietX  06:55-06:57-2m--1-109.830165mNFRTV Centre Road, Assam
4NLNNailalungX  07:16-07:18-2m--1-100.225222mNFRTV Centre Road, Assam
5DPUDiphu (2)X  07:40-07:45-5m--1-90.940180mNFRDiphu, Assam
6DLDEDaldali  08:00-08:02-2m--1-80.947194mNFRDiphu, Assam
7DSRDhansiri  08:13-08:15-2m--1-72.282179mNFRDhansiri, Assam
8RXRRangapahar  08:24-08:26-2m--1-60.015159mNFRRangapahar, Nagaland
9RXRXRangapahar Crossing  08:34-08:36-2m--1-58.029152mNFRArmy Supply Road, Nagaland
10DMVDimapur (3)  08:45-08:55-10m--1-53.736153mNFRDimapur, Nagaland
11KHKTKhotkhoti  09:05-09:07-2m--1-47.750145mNFRKhotkhoti Railway Station, Assam
12BXJBokajan (2)O  09:17-09:22-5m--1-39.420138mNFRBokajan, Assam
13CJAChongajanO  09:40-09:42-2m--1-33.451133mNFRNaojan Crossing Gate Road, Assam
14NJNNaojan (1)O  09:51-09:53-2m11-25.842128mNFRNo.1 Kori Gaon, Assam
15SZRSarupathar (2)  10:05-10:10-5m--1-17.438123mNFRSarupathar Road Thana Rd, Assam
16BXPBarpatharX  10:25-10:30-5m--1-7.836115mNFRRailway Station, Assam
17BHGN»Bhilgaon (1)»X  10:43-10:45-2m110.041113mNFRAsian Highway 1, Assam
18JMIJamguri  10:55-10:57-2m--16.814104mNFROating Grant, Assam
19OTNOating  11:20-11:22-2m--112.314112mNFRTirual Gaon, Assam
20FKGFurkating Junction (2)  11:40-11:45-5m--116.545 NFRK B Rd, Assam
21KXLKamarbandha AliXO  11:57-11:59-2m--125.51099mNFRK B Rd, Assam
22CFGChakitingO  12:32-12:34-2m--130.86297mNFRChakiting, Assam
23TTBTitabar (1)X  12:45-12:47-2m1142.13598mNFRTitabor, Assam
24KQYKharikatiaX  12:58-13:00-2m--148.645107mNFRDhodar Ali, Assam
25MXNMariani Junction (4)XO  13:08-13:18-10m1154.615117mNFRDist. Jorhat Pin-785634, Assam
26NCHNakachari (2)  14:01-14:03-2m--165.142115mNFRNakachari, Assam
27LHLahing  14:11-14:13-2m--170.750109mNFRLahing, Assam
28SLXSelenghat  14:21-14:23-2m--177.340104mNFRSelenghat, Assam
29AGIAmguri Junction (2)  14:31-14:36-5m1182.663104mNFRAmguri, Assam
30NMTNamtiali  14:47-14:49-2m--194.14398mNFRDhodor Ali, Assam
31MZAMezenga  14:58-15:00-2m--1100.63799mNFRReboti Gaon, Assam
32NZRNazira  15:07-15:09-2m--1104.92196mNFRNazira, Assam
33SLGRSimaluguri Junction (3)  15:20-15:25-5m11108.74399mNFRSimaluguri, Assam
34MUGNMahutgaon  15:34-15:36-2m--1115.24299mNFRLakwa Rajgarh Road, Assam
35LXALakswa  15:46-15:48-2m--1122.25298mNFRKukurachowa Gaon Rd, Assam
36SFRSafrai  16:00-16:02-2m--1132.555101mNFRBarpothar, Assam
37BOJBhojoX  16:13-16:18-5m--1142.626107mNFRBhojo Railway Station, Assam
38LPTALongpatia  16:33-16:35-2m--1149.234109mNFRLongpatia, Assam
39SPKSapekhatiO  16:48-16:53-5m--1156.513112mNFRMoran to Naharkatiya Rd, Assam
40BRNRBaruanagar  17:30-17:32-2m--1164.425115mNFRDeopani Habi, Assam
41BFDBorhatX  17:44-17:49-5m--1169.421118mNFRNahar Rd, Assam
42NAMNamrup (2)  18:04-18:09-5m11174.739123mNFRBorhat, Assam
43BTZBalimara  18:17-18:19-2m--1179.843122mNFRBalimara, Assam
44NHKNaharkatiya  18:27-18:32-5m--1185.656121mNFRNaharkatiya, Assam
45DJGDuliajan  18:42-18:47-5m--1194.933123mNFRDuliajan, Assam
46BDTBordubi Road  18:54-18:56-2m--1198.719123mNFRMadhubon to Naoholia Rd, Assam
47CGFCharali  19:04-19:06-2m--1201.225125mNFRMadhubon to Naoholia Rd, Assam
48NTSKNew Tinsukia Junction (3)  19:30-19:50-20m--1211.214124mNFRDist: Tinsukia, Assam
49TSK•Tinsukia Junction (3)•  20:00--41213.6-124mNFRTinsukia, Assam
Scroll to Top
Scroll to Bottom